Powrót do katalogu

EDDA-1 300E

AktywnyŁącznośćSSO
NORAD 69017·PAYLOAD·🇺🇸 United States

Wystrzelony May 3, 2026 z Vandenberg Space Force Base

Loading…

Następne Przeloty (najbliższe 24 godziny)

TLE

ŚwieżeSource: CelesTrak SupGP

Epoka: Sep 14, 2026, 22:16 UTC

1 69017C 26100S   26257.92829861  .00002047  00000+0  81710-4 0  2579
2 69017  97.3485 154.3586 0003223 120.2771  19.9946 15.25216245    15

Śledź EDDA-1 300E w czasie rzeczywistym z AllMySat

Download on the App Store